Time,TemperatureF,DewpointF,PressureIn,WindDirection,WindDirectionDegrees,WindSpeedMPH,WindSpeedGustMPH,Humidity,HourlyPrecipIn,Conditions,Clouds,dailyrainin,SoftwareType,DateUTC
2013-01-31 00:06:00,36.2,28.0,30.01,West,261,11.0,-999.0,71,-99.99,,,0.01,weatherlink.com 1.10,2013-01-31 06:06:00,
2013-01-31 00:21:00,36.1,28.0,30.02,WNW,298,16.0,-999.0,72,-99.99,,,0.01,weatherlink.com 1.10,2013-01-31 06:21:00,
2013-01-31 00:36:00,35.8,27.0,30.03,WNW,292,5.0,-999.0,71,-99.99,,,0.01,weatherlink.com 1.10,2013-01-31 06:36:00,
2013-01-31 00:51:00,35.7,27.0,30.04,WNW,298,14.0,-999.0,70,-99.99,,,0.01,weatherlink.com 1.10,2013-01-31 06:51:00,
2013-01-31 01:06:00,35.4,27.0,30.05,WNW,298,12.0,-999.0,72,-99.99,,,0.01,weatherlink.com 1.10,2013-01-31 07:06:00,
2013-01-31 01:21:00,35.5,27.0,30.05,NW,313,10.0,-999.0,72,-99.99,,,0.01,weatherlink.com 1.10,2013-01-31 07:21:00,
2013-01-31 01:36:00,35.6,28.0,30.05,West,280,6.0,-999.0,73,-99.99,,,0.01,weatherlink.com 1.10,2013-01-31 07:36:00,
2013-01-31 01:51:00,35.4,28.0,30.06,WNW,298,5.0,-999.0,74,-99.99,,,0.01,weatherlink.com 1.10,2013-01-31 07:51:00,
2013-01-31 02:06:00,35.3,28.0,30.06,West,279,8.0,-999.0,76,-99.99,,,0.01,weatherlink.com 1.10,2013-01-31 08:06:00,
2013-01-31 02:21:00,35.2,28.0,30.07,NW,311,6.0,-999.0,75,-99.99,,,0.01,weatherlink.com 1.10,2013-01-31 08:21:00,
2013-01-31 02:36:00,35.0,28.0,30.07,NW,304,5.0,-999.0,75,-99.99,,,0.01,weatherlink.com 1.10,2013-01-31 08:36:00,
2013-01-31 02:52:00,34.7,27.0,30.07,West,277,8.0,-999.0,73,-99.99,,,0.01,weatherlink.com 1.10,2013-01-31 08:52:00,
2013-01-31 03:06:00,34.2,27.0,30.07,WNW,300,8.0,-999.0,74,-99.99,,,0.01,weatherlink.com 1.10,2013-01-31 09:06:00,
2013-01-31 03:21:00,33.9,26.0,30.07,WNW,294,6.0,-999.0,73,-99.99,,,0.01,weatherlink.com 1.10,2013-01-31 09:21:00,
2013-01-31 03:36:00,33.7,25.0,30.08,WNW,297,8.0,-999.0,71,-99.99,,,0.01,weatherlink.com 1.10,2013-01-31 09:36:00,
2013-01-31 03:51:00,33.4,26.0,30.08,West,274,2.0,-999.0,73,-99.99,,,0.01,weatherlink.com 1.10,2013-01-31 09:51:00,
2013-01-31 04:06:00,32.7,26.0,30.09,West,272,6.0,-999.0,76,-99.99,,,0.01,weatherlink.com 1.10,2013-01-31 10:06:00,
2013-01-31 04:21:00,32.4,26.0,30.09,West,263,10.0,-999.0,78,-99.99,,,0.01,weatherlink.com 1.10,2013-01-31 10:21:00,
2013-01-31 04:36:00,32.2,26.0,30.09,West,261,7.0,-999.0,77,-99.99,,,0.01,weatherlink.com 1.10,2013-01-31 10:36:00,
2013-01-31 04:52:00,32.0,26.0,30.10,West,271,7.0,-999.0,78,-99.99,,,0.01,weatherlink.com 1.10,2013-01-31 10:52:00,
2013-01-31 05:07:00,31.8,26.0,30.11,West,279,4.0,-999.0,78,-99.99,,,0.01,weatherlink.com 1.10,2013-01-31 11:07:00,
2013-01-31 05:22:00,31.6,26.0,30.12,WSW,255,2.0,-999.0,79,-99.99,,,0.01,weatherlink.com 1.10,2013-01-31 11:22:00,
2013-01-31 05:37:00,31.2,26.0,30.13,West,268,4.0,-999.0,80,-99.99,,,0.01,weatherlink.com 1.10,2013-01-31 11:37:00,
2013-01-31 05:52:00,31.2,26.0,30.13,West,274,5.0,-999.0,80,-99.99,,,0.01,weatherlink.com 1.10,2013-01-31 11:52:00,
2013-01-31 06:07:00,31.0,26.0,30.14,West,277,7.0,-999.0,81,-99.99,,,0.01,weatherlink.com 1.10,2013-01-31 12:07:00,
2013-01-31 06:22:00,31.0,26.0,30.14,WNW,285,10.0,-999.0,82,-99.99,,,0.01,weatherlink.com 1.10,2013-01-31 12:22:00,
2013-01-31 06:37:00,30.7,26.0,30.15,West,274,8.0,-999.0,83,-99.99,,,0.01,weatherlink.com 1.10,2013-01-31 12:37:00,
2013-01-31 06:52:00,30.5,26.0,30.16,West,271,8.0,-999.0,84,-99.99,,,0.01,weatherlink.com 1.10,2013-01-31 12:52:00,
2013-01-31 07:07:00,30.6,26.0,30.16,West,277,7.0,-999.0,84,-99.99,,,0.01,weatherlink.com 1.10,2013-01-31 13:07:00,
2013-01-31 07:22:00,31.0,26.0,30.17,WNW,286,5.0,-999.0,83,-99.99,,,0.01,weatherlink.com 1.10,2013-01-31 13:22:00,
2013-01-31 07:37:00,31.2,27.0,30.18,WNW,286,7.0,-999.0,83,-99.99,,,0.01,weatherlink.com 1.10,2013-01-31 13:37:00,
2013-01-31 07:52:00,31.5,27.0,30.18,WNW,286,9.0,-999.0,82,-99.99,,,0.01,weatherlink.com 1.10,2013-01-31 13:52:00,
2013-01-31 08:07:00,31.7,27.0,30.18,WNW,298,10.0,-999.0,82,-99.99,,,0.01,weatherlink.com 1.10,2013-01-31 14:07:00,
2013-01-31 08:22:00,32.1,27.0,30.20,WNW,302,14.0,-999.0,82,-99.99,,,0.01,weatherlink.com 1.10,2013-01-31 14:22:00,
2013-01-31 08:37:00,32.5,27.0,30.20,NW,306,6.0,-999.0,80,-99.99,,,0.01,weatherlink.com 1.10,2013-01-31 14:37:00,
2013-01-31 08:52:00,32.9,27.0,30.21,WNW,295,10.0,-999.0,80,-99.99,,,0.01,weatherlink.com 1.10,2013-01-31 14:52:00,
2013-01-31 09:07:00,33.3,27.0,30.21,WNW,294,10.0,-999.0,78,-99.99,,,0.01,weatherlink.com 1.10,2013-01-31 15:07:00,
2013-01-31 09:22:00,33.8,27.0,30.23,NW,315,8.0,-999.0,76,-99.99,,,0.01,weatherlink.com 1.10,2013-01-31 15:22:00,
2013-01-31 09:37:00,34.0,27.0,30.25,NW,318,8.0,-999.0,75,-99.99,,,0.01,weatherlink.com 1.10,2013-01-31 15:37:00,
2013-01-31 09:52:00,34.8,27.0,30.25,WNW,302,4.0,-999.0,74,-99.99,,,0.00,weatherlink.com 1.10,2013-01-31 15:52:00,
2013-01-31 10:07:00,35.0,27.0,30.24,West,275,10.0,-999.0,73,-99.99,,,0.00,weatherlink.com 1.10,2013-01-31 16:07:00,
2013-01-31 10:23:00,36.5,29.0,30.25,NW,306,10.0,-999.0,74,-99.99,,,0.00,weatherlink.com 1.10,2013-01-31 16:23:00,
2013-01-31 10:38:00,36.5,28.0,30.26,NW,325,8.0,-999.0,70,-99.99,,,0.00,weatherlink.com 1.10,2013-01-31 16:38:00,
2013-01-31 10:52:00,37.4,27.0,30.26,NW,325,8.0,-999.0,65,-99.99,,,0.00,weatherlink.com 1.10,2013-01-31 16:52:00,
2013-01-31 11:08:00,38.2,27.0,30.26,WNW,288,8.0,-999.0,64,-99.99,,,0.00,weatherlink.com 1.10,2013-01-31 17:08:00,
2013-01-31 11:23:00,38.8,27.0,30.26,WNW,299,12.0,-999.0,62,-99.99,,,0.00,weatherlink.com 1.10,2013-01-31 17:23:00,
2013-01-31 11:38:00,39.6,27.0,30.26,WNW,284,10.0,-999.0,60,-99.99,,,0.00,weatherlink.com 1.10,2013-01-31 17:38:00,
2013-01-31 11:53:00,40.4,26.0,30.25,NNW,327,8.0,-999.0,58,-99.99,,,0.00,weatherlink.com 1.10,2013-01-31 17:53:00,
2013-01-31 12:08:00,40.9,26.0,30.25,NW,308,5.0,-999.0,55,-99.99,,,0.00,weatherlink.com 1.10,2013-01-31 18:08:00,
2013-01-31 12:23:00,41.7,28.0,30.24,WNW,292,6.0,-999.0,59,-99.99,,,0.00,weatherlink.com 1.10,2013-01-31 18:23:00,
2013-01-31 12:38:00,42.6,27.0,30.23,NNW,336,7.0,-999.0,55,-99.99,,,0.00,weatherlink.com 1.10,2013-01-31 18:38:00,
2013-01-31 12:53:00,43.2,27.0,30.23,NNW,333,4.0,-999.0,54,-99.99,,,0.00,weatherlink.com 1.10,2013-01-31 18:53:00,
2013-01-31 13:08:00,43.7,26.0,30.21,NNW,328,7.0,-999.0,51,-99.99,,,0.00,weatherlink.com 1.10,2013-01-31 19:08:00,
2013-01-31 13:23:00,43.8,27.0,30.21,West,261,5.0,-999.0,52,-99.99,,,0.00,weatherlink.com 1.10,2013-01-31 19:23:00,
2013-01-31 13:38:00,44.8,27.0,30.22,West,259,10.0,-999.0,51,-99.99,,,0.00,weatherlink.com 1.10,2013-01-31 19:38:00,
2013-01-31 13:53:00,45.3,27.0,30.22,WNW,291,8.0,-999.0,49,-99.99,,,0.00,weatherlink.com 1.10,2013-01-31 19:53:00,
2013-01-31 14:08:00,45.3,27.0,30.22,West,280,13.0,-999.0,49,-99.99,,,0.00,weatherlink.com 1.10,2013-01-31 20:08:00,
2013-01-31 14:23:00,45.8,27.0,30.21,West,269,8.0,-999.0,49,-99.99,,,0.00,weatherlink.com 1.10,2013-01-31 20:23:00,
2013-01-31 14:38:00,46.6,26.0,30.22,WNW,295,8.0,-999.0,45,-99.99,,,0.00,weatherlink.com 1.10,2013-01-31 20:38:00,
2013-01-31 14:53:00,46.6,26.0,30.21,NW,326,6.0,-999.0,44,-99.99,,,0.00,weatherlink.com 1.10,2013-01-31 20:53:00,
2013-01-31 15:08:00,47.1,27.0,30.21,WNW,293,10.0,-999.0,45,-99.99,,,0.00,weatherlink.com 1.10,2013-01-31 21:08:00,
2013-01-31 15:24:00,47.5,27.0,30.21,NW,315,8.0,-999.0,45,-99.99,,,0.00,weatherlink.com 1.10,2013-01-31 21:24:00,
2013-01-31 15:39:00,47.7,28.0,30.20,WSW,258,12.0,-999.0,46,-99.99,,,0.00,weatherlink.com 1.10,2013-01-31 21:39:00,
2013-01-31 15:53:00,47.7,29.0,30.20,WSW,247,5.0,-999.0,48,-99.99,,,0.00,weatherlink.com 1.10,2013-01-31 21:53:00,
2013-01-31 16:09:00,47.6,28.0,30.19,SW,234,8.0,-999.0,46,-99.99,,,0.00,weatherlink.com 1.10,2013-01-31 22:09:00,
2013-01-31 16:23:00,47.3,27.0,30.19,West,264,12.0,-999.0,45,-99.99,,,0.00,weatherlink.com 1.10,2013-01-31 22:23:00,
2013-01-31 16:39:00,46.9,27.0,30.20,WSW,241,9.0,-999.0,46,-99.99,,,0.00,weatherlink.com 1.10,2013-01-31 22:39:00,
2013-01-31 16:54:00,46.3,27.0,30.20,WSW,240,6.0,-999.0,48,-99.99,,,0.00,weatherlink.com 1.10,2013-01-31 22:54:00,
2013-01-31 17:09:00,45.6,27.0,30.19,WSW,242,9.0,-999.0,48,-99.99,,,0.00,weatherlink.com 1.10,2013-01-31 23:09:00,
2013-01-31 17:24:00,44.5,27.0,30.19,WSW,251,3.0,-999.0,51,-99.99,,,0.00,weatherlink.com 1.10,2013-01-31 23:24:00,
2013-01-31 17:38:00,44.0,27.0,30.20,WSW,241,1.0,-999.0,52,-99.99,,,0.00,weatherlink.com 1.10,2013-01-31 23:38:00,
2013-01-31 17:53:00,43.5,27.0,30.20,WSW,246,5.0,-999.0,53,-99.99,,,0.00,weatherlink.com 1.10,2013-01-31 23:53:00,
2013-01-31 18:08:00,42.8,27.0,30.21,WSW,250,0.0,-999.0,54,-99.99,,,0.00,weatherlink.com 1.10,2013-02-01 00:08:00,
2013-01-31 18:24:00,42.3,27.0,30.22,WSW,250,0.0,-999.0,55,-99.99,,,0.00,weatherlink.com 1.10,2013-02-01 00:24:00,
2013-01-31 18:38:00,42.0,27.0,30.22,WSW,250,0.0,-999.0,55,-99.99,,,0.00,weatherlink.com 1.10,2013-02-01 00:38:00,
2013-01-31 18:53:00,41.6,27.0,30.23,WSW,240,2.0,-999.0,57,-99.99,,,0.00,weatherlink.com 1.10,2013-02-01 00:53:00,
2013-01-31 19:09:00,41.4,27.0,30.23,WSW,246,0.0,-999.0,57,-99.99,,,0.00,weatherlink.com 1.10,2013-02-01 01:09:00,
2013-01-31 19:23:00,41.3,27.0,30.24,WSW,246,0.0,-999.0,58,-99.99,,,0.00,weatherlink.com 1.10,2013-02-01 01:23:00,
2013-01-31 19:38:00,40.7,27.0,30.24,WSW,240,0.0,-999.0,59,-99.99,,,0.00,weatherlink.com 1.10,2013-02-01 01:38:00,
2013-01-31 19:54:00,40.7,27.0,30.23,WSW,238,3.0,-999.0,59,-99.99,,,0.00,weatherlink.com 1.10,2013-02-01 01:54:00,
2013-01-31 20:09:00,40.5,27.0,30.23,SW,221,3.0,-999.0,60,-99.99,,,0.00,weatherlink.com 1.10,2013-02-01 02:09:00,
2013-01-31 20:24:00,40.4,28.0,30.23,SW,229,5.0,-999.0,62,-99.99,,,0.00,weatherlink.com 1.10,2013-02-01 02:24:00,
2013-01-31 20:39:00,40.4,29.0,30.23,WSW,248,8.0,-999.0,63,-99.99,,,0.00,weatherlink.com 1.10,2013-02-01 02:39:00,
2013-01-31 20:54:00,40.3,29.0,30.24,WSW,242,6.0,-999.0,64,-99.99,,,0.00,weatherlink.com 1.10,2013-02-01 02:54:00,
2013-01-31 21:09:00,40.4,29.0,30.24,WSW,237,8.0,-999.0,64,-99.99,,,0.00,weatherlink.com 1.10,2013-02-01 03:09:00,
2013-01-31 21:24:00,40.4,29.0,30.24,WSW,247,8.0,-999.0,64,-99.99,,,0.00,weatherlink.com 1.10,2013-02-01 03:24:00,
2013-01-31 21:39:00,40.5,29.0,30.25,WSW,253,8.0,-999.0,64,-99.99,,,0.00,weatherlink.com 1.10,2013-02-01 03:39:00,
2013-01-31 21:54:00,40.6,29.0,30.25,WSW,250,7.0,-999.0,64,-99.99,,,0.00,weatherlink.com 1.10,2013-02-01 03:54:00,
2013-01-31 22:09:00,40.5,29.0,30.25,WSW,243,8.0,-999.0,64,-99.99,,,0.00,weatherlink.com 1.10,2013-02-01 04:09:00,
2013-01-31 22:24:00,40.3,29.0,30.25,WSW,254,6.0,-999.0,65,-99.99,,,0.00,weatherlink.com 1.10,2013-02-01 04:24:00,
2013-01-31 22:39:00,40.0,29.0,30.25,WSW,245,6.0,-999.0,65,-99.99,,,0.00,weatherlink.com 1.10,2013-02-01 04:39:00,
2013-01-31 22:54:00,40.0,29.0,30.25,WSW,252,6.0,-999.0,66,-99.99,,,0.00,weatherlink.com 1.10,2013-02-01 04:54:00,
2013-01-31 23:09:00,39.8,29.0,30.25,WSW,242,5.0,-999.0,66,-99.99,,,0.00,weatherlink.com 1.10,2013-02-01 05:09:00,
2013-01-31 23:24:00,39.8,29.0,30.24,WSW,237,8.0,-999.0,66,-99.99,,,0.00,weatherlink.com 1.10,2013-02-01 05:24:00,
2013-01-31 23:39:00,39.7,29.0,30.24,WSW,240,6.0,-999.0,67,-99.99,,,0.00,weatherlink.com 1.10,2013-02-01 05:39:00,
2013-01-31 23:54:00,39.9,29.0,30.24,SW,227,7.0,-999.0,66,-99.99,,,0.00,weatherlink.com 1.10,2013-02-01 05:54:00,